Regional Weather Roundup
Issued by NWS

Home | Current Version | Previous Version | Graphics & Text | Print | Product List | Glossary On
Versions: 1 2 3 4 5 6 7 8 9 10 11 12 13 14 15 16 17 18 19 20 21 22 23 24 25 26 27 28 29 30 31 32 33 34 35 36 37 38 39 40 41 42 43 44 45 46 47 48 49 50
073
ASUS43 KDMX 081401
RWRIA

WEATHER ROUNDUP FOR IOWA
NATIONAL WEATHER SERVICE DES MOINES IA
800 AM CST THU DEC 08 2016

NOTE: "FAIR" INDICATES FEW OR NO CLOUDS BELOW 12,000 FEET WITH NO
SIGNIFICANT WEATHER AND/OR OBSTRUCTIONS TO VISIBILITY.

* - THESE STATIONS ARE NOT NWS STATIONS...THUS NOT UNDER NWS
QUALITY CONTROL.  THEY ALSO DO NOT REPORT WEATHER SUCH
AS PRECIPITATION OR FOG.

IAZ001>003-012>014-020>022-031>034-043>046-081500-
   NORTHWEST IOWA

CITY           SKY/WX    TMP DP  RH WIND       PRES   REMARKS
CARROLL *      CLEAR     10   5  79 NW22      30.47R WCI  -9
SHELDON *      CLEAR      9   5  85 NW21G26   30.44R WCI -11
SIOUX CITY     PTCLDY    11   3  70 NW20G25   30.54R WCI  -7
SPENCER        CLEAR      9   4  80 W29G36    30.42R WCI -13
STORM LAKE *   PTCLDY     9   3  78 NW22      30.44R WCI -11
$$

IAZ055>058-069>071-079>083-090>094-081500-
   SOUTHWEST IOWA

CITY           SKY/WX    TMP DP  RH WIND       PRES   REMARKS
AUDUBON *      CLEAR     10   3  72 NW13G21   30.48R WCI  -5
LAMONI         PTCLDY    12   6  77 NW16      30.48R WCI  -5
RED OAK *      MOCLDY    12   5  73 NW20G26   30.54F WCI  -6
$$

IAZ047>049-059>061-072>074-084-081500-
   CENTRAL IOWA

CITY           SKY/WX    TMP DP  RH WIND       PRES   REMARKS
AMES           CLEAR     12   6  77 NW18G24   30.44R WCI  -6
ANKENY *       MOCLDY    12   5  73 W23G30    30.47R WCI  -7
BOONE *        FLURRIES  10   3  72 W21G29    30.41R WCI  -9
DES MOINES     PTCLDY    13   4  67 NW23      30.46R WCI  -6
GRINNELL*      PTCLDY    11   7  81 W20G26    30.40R WCI  -7
MARSHALLTOWN   CLOUDY    13   7  77 W23       30.39R WCI  -6
PELLA *        CLEAR     13   6  72 NW18G25   30.45R WCI  -4
PERRY *          N/A     11   6  80 W20G25    30.47R WCI  -7
$$

IAZ004>006-015-016-023>025-035-036-081500-
   NORTH CENTRAL IOWA

CITY           SKY/WX    TMP DP  RH WIND       PRES   REMARKS
CLARION *      CLOUDY    12   7  79 W20       30.39R WCI  -6
ESTHERVILLE    CLOUDY    11   7  84 NW21G28   30.38R WCI  -8
FORT DODGE *   CLEAR     10   1  67 W13G23    30.43R WCI  -5
MASON CITY     FLURRIES  14   9  80 NW20      30.34R WCI  -3
WEBSTER CITY * CLOUDY    12   7  79 W21       30.40R WCI  -6
IOWA FALLS *   CLOUDY    14   9  80 W22G28    30.37R WCI  -4
$$

IAZ007>011-017>019-026>030-037>042-050>054-066-081500-
   NORTHEAST IOWA

CITY           SKY/WX    TMP DP  RH WIND       PRES   REMARKS
CEDAR RAPIDS   PTCLDY    11   8  88 W21       30.35R WCI  -8
CHARLES CITY * FLURRIES  14  10  85 NW17G25   30.32R WCI  -3
DUBUQUE        CLOUDY    11   6  81 W14G22    30.28R WCI  -5
MONTICELLO *   CLOUDY    14   7  73 W16       30.32R WCI  -2
WATERLOO       CLOUDY    15   7  70 W16G23    30.34R WCI  -1
$$

IAZ064-065-067-068-078-081500-
   EAST CENTRAL IOWA

CITY           SKY/WX    TMP DP  RH WIND       PRES   REMARKS
DAVENPORT      PTCLDY    14   7  73 W23       30.35R WCI  -5
IOWA CITY      CLOUDY    14   6  70 W15G24    30.40R WCI  -1
QUAD CITIES    CLOUDY    16   6  65 W16G30    30.37R WCI   1
$$

IAZ062-063-075>077-085>089-095>099-081500-
   SOUTHEAST IOWA

CITY           SKY/WX    TMP DP  RH WIND       PRES   REMARKS
BURLINGTON     MOCLDY    15   7  70 NW9G24    30.41R WCI   3
OTTUMWA        PTCLDY    13   4  67 W18G26    30.42R WCI  -4
$$

ABBREVIATIONS USED IN REMARKS
   TC - TEMPERATURES IN CELSIUS
  WCI - WIND CHILL INDEX
   HX - HEAT INDEX
  VSB - VISIBILITY
$$





USA.gov is the U.S. government's official web portal to all federal, state and local government web resources and services.